Home   Weather   Blackpool   Past weeks

Flag for United Kingdom Past Weather in Blackpool, England, United Kingdom — Yesterday and Last 2 Weeks

Now
46 °F

Passing clouds.


Feels Like: 40 °F
Forecast: N/A
Wind: 14 mph from Southeast

Location: Blackpool Airport

Current Time: Dec 6, 2016 at 6:00:09 pm

Latest Report: Dec 6, 2016 at 5:20 pm


Visibility: 4 mi

Pressure: 30.21 "Hg

Humidity: 93%

Dew Point: 45 °F

Location of BlackpoolLocation

Past Weather in Blackpool — Graph

°F

Blackpool Temperature Yesterday

Maximum temperature yesterday: 41 °F (at 12:20 pm)
Minimum temperature yesterday: 34 °F (at 6:20 am)
Average temperature yesterday: 36 °F

High & Low Weather Summary for the Past Weeks

 TemperatureHumidityPressure
High50 °F (Nov 30, 12:20 pm)100% (Nov 25, 8:50 pm)30.57 "Hg (Nov 25, 8:50 pm)
Low27 °F (Nov 26, 8:50 am)66% (Dec 4, 2:20 pm)29.15 "Hg (Nov 21, 6:20 pm)
Average41 °F87%30.27 "Hg
* Reported Nov 21 4:50 pm — Dec 6 4:20 pm, Blackpool, Weather by CustomWeather, © 2016

Note: Actual official high and low records may vary slightly from our data, if they occured in-between our weather recording intervals... More about our weather records

Advertising

Blackpool Weather History for the Previous 24 Hours

Scroll right to see more
 ConditionsComfort  
Time TempWeatherWind HumidityBarometerVisibility
4:20 pm
Tue, Dec 6
45 °FLow clouds.16 mph100%30.21 "Hg4 mi
3:50 pm45 °FLow clouds.14 mph100%30.21 "Hg4 mi
3:20 pm45 °FLow clouds.14 mph100%30.21 "Hg4 mi
2:50 pm45 °FLow clouds.12 mph100%30.21 "Hg4 mi
2:20 pm45 °FPartly sunny.12 mph100%30.24 "Hg4 mi
1:50 pm45 °FFog.14 mph100%30.21 "Hg3 mi
1:20 pm45 °FFog.14 mph100%30.21 "Hg3 mi
12:50 pm45 °FFog.14 mph100%30.24 "Hg3 mi
12:20 pm45 °FFog.12 mph93%30.24 "Hg2 mi
11:50 am45 °FFog.15 mph93%30.24 "Hg2 mi
11:20 am45 °FFog.13 mph93%30.24 "Hg2 mi
8:50 am41 °FFog.13 mph100%30.24 "Hg3 mi
8:20 am43 °FPartly sunny.10 mph93%30.24 "Hg4 mi
7:50 am41 °FPassing clouds.10 mph93%30.24 "Hg4 mi
7:20 am41 °FPassing clouds.9 mph93%30.24 "Hg5 mi
6:50 am41 °FPassing clouds.9 mph93%30.24 "Hg6 mi
6:20 am41 °FPassing clouds.8 mph93%30.24 "Hg6 mi
8:50 pm
Mon, Dec 5
36 °FClear.8 mph100%30.24 "Hg5 mi
8:20 pm36 °FClear.10 mph100%30.24 "Hg5 mi
7:50 pm34 °FClear.7 mph100%30.24 "Hg5 mi
7:20 pm34 °FClear.8 mph100%30.21 "Hg4 mi
6:50 pm34 °FClear.8 mph100%30.24 "Hg4 mi
6:20 pm34 °FClear.9 mph100%30.21 "Hg4 mi
Weather by CustomWeather, © 2016

See weather overviewHow to use our weather pages